FOX-1CLIFF (AO-95)

Last updated on Wed Sep 17 2025 00:03:09 GMT+0000 (Coordinated Universal Time)

1 43770U 18099N 25259.12921253 .00010987 00000+0 52795-3 0 9991 2 43770 97.4819 316.1823 0009431 221.6502 138.4015 15.18961439371505
UTC large
Height (km)
Speed (km/s)
/
Latitude / Longitude
Inclination (degrees)
Orbital Period (minutes)
Azimuth
Elevation
Range (km)
Doppler Factor

Next 0 passes for location: London (51.5072 / 0.1276)

Sorry there are no passes over London.